Regional Weather Roundup
Issued by NWS

Home | Current Version | Previous Version | Graphics & Text | Print | Product List | Glossary On
Versions: 1 2 3 4 5 6 7 8 9 10 11 12 13 14 15 16 17 18 19 20 21 22 23 24 25 26 27 28 29 30 31 32 33 34 35 36 37 38 39 40 41 42 43 44 45 46 47 48 49 50
000
ASUS43 KLOT 260210
RWRIL

ILLINOIS REGIONAL WEATHER ROUNDUP
NATIONAL WEATHER SERVICE CHICAGO/ROMEOVILLE IL
800 PM CST THU DEC 25 2014

NOTE: "FAIR" INDICATES FEW OR NO CLOUDS BELOW 12,000 FEET WITH NO
SIGNIFICANT WEATHER AND/OR OBSTRUCTIONS TO VISIBILITY.

* THESE STATIONS ARE NOT UNDER NWS QUALITY CONTROL. THEY ALSO MAY NOT
  REPORT WEATHER SUCH AS PRECIPITATION OR FOG.

ILZ001-002-007-009-015-016-024-260300-
NORTHWEST ILLINOIS

CITY           SKY/WX    TMP DP  RH WIND       PRES   REMARKS
MOLINE         CLOUDY    41  33  73 SE12      29.89S
STERLING*      PTCLDY    39  34  81 S6        29.93S WCI  35
SAVANNA*       MOCLDY    40  33  76 S10       29.91S
$$

ILZ003-004-008-010-011-017-018-260300-
NORTH CENTRAL ILLINOIS

CITY           SKY/WX    TMP DP  RH WIND       PRES   REMARKS
ROCKFORD       MOCLDY    40  34  79 S15       29.96R
FREEPORT*      MOCLDY    37  33  85 S10       29.94R WCI  30
ROCHELLE*      MOCLDY    38  35  89 S15       29.95R WCI  29
DE KALB*       PTCLDY    36  33  90 S15       29.96R WCI  26
PERU*          PTCLDY    40  35  83 S13G20    29.97R
$$

ILZ005-006-012>014-019>023-260300-
NORTHEAST ILLINOIS

CITY           SKY/WX    TMP DP  RH WIND       PRES   REMARKS
CHICAGO-OHARE  CLOUDY    40  34  79 S17G24    29.98F
CHICAGO-MIDWAY CLOUDY    42  35  76 S14       30.00F
AURORA         PTCLDY    39  33  79 S12       29.98S WCI  32
LANSING*       MOCLDY    37  33  85 S10       30.02F WCI  29
JOLIET*        PTCLDY    38  34  85 S9        30.01S WCI  32
WAUKEGAN       CLOUDY    40  34  79 S18       29.96S
DUPAGE AIRPORT MOCLDY    39  34  82 S12       29.97F WCI  32
KANKAKEE*      CLEAR     36  33  88 SE8       30.03F WCI  30
WHEELING       CLOUDY    40  34  79 S17       30.00F
MORRIS*        CLEAR     38  36  90 S15       29.99R WCI  30
ROMEOVILLE*    PTCLDY    37  34  89 S12       30.00S WCI  29
NORTHERLY ISL    N/A     41  34  76 S13         N/A
$$

LMZ740>746-260300-
SOUTHERN LAKE MICHIGAN

STATION/POSITION SKY/WX   TEMP    WIND        PRES    VSBY  WAVE
                          AIR SEA DIR/SP/G                  HT/PER
                          (F)     (DEG/KT/KT) (MB)    (MI)  (FT/S)
WAUKEGAN HARBOR            41                   N/A
HARRISON CRIB              40     180/ 25/ 28   N/A
BURNHAM HARBOR             41     180/  8/ 15   N/A
CALUMET HARBOR             40     170/  9/ 15 1015.0F
MICHIGAN CITY              38     150/ 13/ 18   N/A
$$

ILZ025>027-034>036-040-047-049-050-058-095>099-260300-
WEST-CENTRAL ILLINOIS

CITY           SKY/WX    TMP DP  RH WIND       PRES   REMARKS
QUINCY         PTCLDY    46  28  49 S15       29.88R
GALESBURG*     MOCLDY    40  35  81 SE10G18   29.90R
MACOMB*        PTCLDY    39  34  81 SE14      29.92S WCI  31
JACKSONVILLE*  PTCLDY    44  36  71 S14G23    29.93S
PITTSFIELD*    MOCLDY    43  33  68 SE12      29.92R
$$

ILZ028>032-037-038-041>044-048-051>054-059>061-260300-
CENTRAL ILLINOIS

CITY           SKY/WX    TMP DP  RH WIND       PRES   REMARKS
PONTIAC        PTCLDY    39  36  89 S15       30.00R WCI  30
BLOOMINGTON    MOCLDY    39  35  85 S21       29.99S WCI  29
DECATUR        MOCLDY    41  33  73 S18G25    30.02S
PEORIA         PTCLDY    44  34  67 S20G31    29.94F
LACON*         PTCLDY    41  33  73 S16G22    29.95S
LINCOLN*       CLOUDY    42  35  77 S10G17    29.99R
SPRINGFIELD    MOCLDY    43  35  73 S17       29.97F
TAYLORVILLE    CLOUDY    39  34  81 S15       30.00S WCI  31
$$

ILZ033-039-045-046-055>057-062-063-260300-
EAST-CENTRAL ILLINOIS

CITY           SKY/WX    TMP DP  RH WIND       PRES   REMARKS
CHAMPAIGN      PTCLDY    39  33  79 S16       30.03S WCI  30
DANVILLE*      CLEAR     37  33  87 S7        30.04R WCI  31
RANTOUL*       CLEAR     38  35  89 SE9       30.03S WCI  31
MATTOON        PTCLDY    39  34  82 S12       30.04F WCI  32
PARIS*         CLEAR     38  35  89 S13       30.08S WCI  30
$$

ILZ079-100>102-260300-
SOUTHWEST ILLINOIS

CITY           SKY/WX    TMP DP  RH WIND       PRES   REMARKS
ALTON          CLEAR     43  36  75 S20       30.00S
BELLEVILLE     PTCLDY    43  38  85 S14       30.01F
CAHOKIA*       CLEAR     43  36  76 S10       30.00S
SPARTA*        CLEAR     42  36  77 S10G16    30.05S
$$

ILZ064>066-069>071-074>076-080>082-084>086-088>090-092>094-260300-
SOUTH-CENTRAL ILLINOIS

CITY           SKY/WX    TMP DP  RH WIND       PRES   REMARKS
CARBONDALE     CLEAR     41  33  73 S10       30.08S
CAIRO*         CLEAR     43  35  72 SE8       30.10F
EFFINGHAM*     PTCLDY    40  31  70 SE8       30.07S
MARION         CLEAR     43  34  70 S8        30.10R
MT. VERNON     CLEAR     43  30  61 S13       30.08S
CENTRALIA*     CLEAR     41  33  72 S12       30.06R
SALEM*         PTCLDY    44  34  67 S10       30.06R
METROPOLIS*    CLEAR     40  33  77 CALM      30.12R
$$

ILZ067-068-072-073-078-083-087-091-260300-
SOUTHEAST ILLINOIS

CITY           SKY/WX    TMP DP  RH WIND       PRES   REMARKS
LAWRENCEVILLE  CLEAR     38  34  85 S9        30.11S WCI  31
FLORA*         CLEAR     38  33  82 S9        30.08S WCI  32
FAIRFIELD*     CLEAR     41  34  77 S6        30.08S
HARRISBURG*    CLEAR     37  33  87 SE6       30.12R WCI  32
ROBINSON*      CLEAR     38  33  83 S7        30.11S WCI  32
CARMI*         CLEAR     38  36  91 SE10      30.10F WCI  31
$$

ABBREVIATIONS USED IN REMARKS
   TC - TEMPERATURE IN CELSIUS
  WCI - WIND CHILL INDEX
   HX - HEAT INDEX
  VSB - VISIBILITY
$$



USA.gov is the U.S. government's official web portal to all federal, state and local government web resources and services.